Home > Weather > Neubrandenburg > Past weeks

Flag for Germany Weather for the Past 2 Weeks in Neubrandenburg, Mecklenburg-Western Pomerania, Germany

Now
39 °F

Partly sunny.


Feels Like: 30 °F
Forecast: 35 / 43 °F
Wind: 16 mph from Southwest

Location: Heringsdorf

Current Time: Feb 10, 2016 at 10:42:37 AM

Latest Report: Feb 10, 2016 at 9:50 AM


Visibility: N/A

Pressure: 29.18 "Hg

Humidity: 81%

Dew point: 34 °F

Location of NeubrandenburgLocation

Historic Weather in Neubrandenburg — Graph

°F

Neubrandenburg Temperature Yesterday

Maximum temperature yesterday: 46 °F (at 11:50 AM)
Minimum temperature yesterday: 43 °F (at 8:20 AM)
Average temperature yesterday: 45 °F

High & Low Weather Summary for the Past Weeks

 TemperatureHumidityPressure
High48 °F (Jan 27, 2:20 PM)100% (Feb 1, 8:50 AM)30.18 "Hg (Feb 1, 8:50 AM)
Low32 °F (Feb 5, 8:20 AM)57% (Jan 28, 12:20 PM)29.15 "Hg (Feb 10, 8:20 AM)
Average42 °F78%29.75 "Hg
* Reported Jan 26 9:20 AM — Feb 10 9:20 AM, Neubrandenburg, Weather by CustomWeather, © 2016

Note: Actual official high and low records may vary slightly from our data, if they occured in-between our weather recording intervals... More about our weather records

Advertising

Neubrandenburg Weather History for the Previous 24 Hours

 ConditionsComfort  
Time TempWeatherWind HumidityBarometerVisibility
9:20 AM
Wed, Feb 10
39 °FPartly sunny.13 mph81%29.18 "HgN/A
8:50 AM39 °FPartly sunny.18 mph81%29.18 "HgN/A
8:20 AM39 °FPartly sunny.18 mph81%29.15 "HgN/A
4:50 PM
Tue, Feb 9
45 °FSunny.12 mph66%29.21 "Hg10 mi
4:20 PM43 °FPartly sunny.8 mph71%29.21 "HgN/A
3:50 PM45 °FPartly sunny.7 mph66%29.24 "HgN/A
3:20 PM45 °FPassing clouds.8 mph66%29.24 "HgN/A
2:50 PM45 °FSunny.14 mph66%29.27 "Hg10 mi
2:20 PM46 °FSunny.14 mph57%29.27 "Hg10 mi
1:50 PM46 °FSunny.16 mph62%29.27 "Hg10 mi
1:20 PM46 °FPartly sunny.14 mph57%29.30 "HgN/A
12:50 PM46 °FSunny.17 mph57%29.30 "Hg10 mi
12:20 PM46 °FSunny.16 mph57%29.33 "Hg10 mi
11:50 AM46 °FSunny.17 mph62%29.33 "Hg10 mi
10:50 AM45 °FOvercast.20 mph66%29.33 "HgN/A
10:20 AM45 °FSunny.18 mph66%29.30 "Hg10 mi
Weather by CustomWeather, © 2016

See weather overviewHow to use our weather pages